Time,TemperatureF,DewpointF,PressureIn,WindDirection,WindDirectionDegrees,WindSpeedMPH,WindSpeedGustMPH,Humidity,HourlyPrecipIn,Conditions,Clouds,dailyrainin,SoftwareType,DateUTC
2013-12-31 05:53:00,21.0,14.0,-100.00,SW,225,9.0,14.0,73,0.00,,,-99.99,,2013-12-31 10:53:00,
2013-12-31 06:22:00,22.0,13.0,-100.00,SW,230,11.0,14.0,70,0.00,,,-99.99,,2013-12-31 11:22:00,
2013-12-31 06:52:00,22.0,14.0,-100.00,WSW,240,9.0,17.0,70,0.00,,,-99.99,,2013-12-31 11:52:00,
2013-12-31 07:22:00,22.0,13.0,-100.00,WSW,255,12.0,19.0,70,0.00,,,-99.99,,2013-12-31 12:22:00,
2013-12-31 07:52:00,22.0,14.0,-100.00,West,265,8.0,20.0,72,0.00,,,-99.99,,2013-12-31 12:52:00,
2013-12-31 08:22:00,21.0,15.0,-100.00,West,270,7.0,16.0,77,0.55,,,-99.99,,2013-12-31 13:22:00,
2013-12-31 08:52:00,19.0,15.0,-100.00,NW,305,10.0,22.0,81,6.22,,,-99.99,,2013-12-31 13:52:00,
2013-12-31 09:11:00,19.0,15.0,-100.00,West,280,7.0,16.0,86,2.24,,,-99.99,,2013-12-31 14:11:00,
2013-12-31 09:23:00,19.0,15.0,-100.00,WNW,285,9.0,16.0,86,1.69,,,-99.99,,2013-12-31 14:23:00,
2013-12-31 09:53:00,19.0,12.0,-100.00,West,270,11.0,19.0,74,0.00,,,-99.99,,2013-12-31 14:53:00,
2013-12-31 10:22:00,19.0,12.0,-100.00,WNW,290,14.0,21.0,73,0.00,,,-99.99,,2013-12-31 15:22:00,
2013-12-31 10:53:00,18.0,13.0,-100.00,West,280,9.0,21.0,81,0.00,,,-99.99,,2013-12-31 15:53:00,
2013-12-31 11:23:00,19.0,13.0,-100.00,WNW,300,12.0,21.0,75,0.00,,,-99.99,,2013-12-31 16:23:00,
2013-12-31 11:42:00,19.0,12.0,-100.00,WSW,250,11.0,17.0,72,0.00,,,-99.99,,2013-12-31 16:42:00,
2013-12-31 11:52:00,19.0,11.0,-100.00,West,270,16.0,22.0,69,0.00,,,-99.99,,2013-12-31 16:52:00,
2013-12-31 12:21:00,20.0,12.0,-100.00,West,275,10.0,19.0,73,0.00,,,-99.99,,2013-12-31 17:21:00,
2013-12-31 12:22:00,19.0,11.0,-100.00,West,270,11.0,21.0,69,0.00,,,-99.99,,2013-12-31 17:22:00,
2013-12-31 12:53:00,20.0,12.0,-100.00,West,275,10.0,19.0,73,0.00,,,-99.99,,2013-12-31 17:53:00,
2013-12-31 13:02:00,20.0,12.0,-100.00,West,275,10.0,19.0,73,0.00,,,-99.99,,2013-12-31 18:02:00,
2013-12-31 13:12:00,20.0,12.0,-100.00,West,275,10.0,19.0,73,0.00,,,-99.99,,2013-12-31 18:12:00,
2013-12-31 14:53:00,20.0,12.0,-100.00,West,260,6.0,12.0,68,0.00,,,-99.99,,2013-12-31 19:53:00,
2013-12-31 15:21:00,20.0,12.0,-100.00,West,280,9.0,13.0,69,0.00,,,-99.99,,2013-12-31 20:21:00,
2013-12-31 15:53:00,21.0,13.0,-100.00,WSW,245,9.0,17.0,69,0.00,,,-99.99,,2013-12-31 20:53:00,
2013-12-31 16:22:00,22.0,13.0,-100.00,WSW,240,11.0,16.0,67,0.00,,,-99.99,,2013-12-31 21:22:00,
2013-12-31 16:53:00,22.0,13.0,-100.00,SW,225,7.0,11.0,68,0.00,,,-99.99,,2013-12-31 21:53:00,
2013-12-31 17:23:00,22.0,13.0,-100.00,WSW,250,6.0,10.0,68,0.00,,,-99.99,,2013-12-31 22:23:00,
2013-12-31 17:34:00,22.0,13.0,-100.00,WSW,250,6.0,10.0,68,0.00,,,-99.99,,2013-12-31 22:34:00,
2013-12-31 17:41:00,22.0,14.0,-100.00,WSW,240,4.0,8.0,69,0.00,,,-99.99,,2013-12-31 22:41:00,
2013-12-31 17:53:00,22.0,13.0,-100.00,West,260,4.0,11.0,68,0.00,,,-99.99,,2013-12-31 22:53:00,
2013-12-31 18:12:00,22.0,14.0,-100.00,WSW,240,4.0,8.0,69,0.00,,,-99.99,,2013-12-31 23:12:00,
2013-12-31 18:22:00,22.0,14.0,-100.00,WSW,240,4.0,8.0,69,0.00,,,-99.99,,2013-12-31 23:22:00,
2013-12-31 18:33:00,22.0,14.0,-100.00,WSW,240,4.0,8.0,69,0.00,,,-99.99,,2013-12-31 23:33:00,
2013-12-31 18:53:00,21.0,14.0,-100.00,SW,215,3.0,4.0,72,0.00,,,-99.99,,2013-12-31 23:53:00,
2013-12-31 19:22:00,21.0,13.0,-100.00,SW,215,3.0,4.0,72,0.00,,,-99.99,,2014-01-01 00:22:00,
2013-12-31 19:52:00,21.0,14.0,-100.00,SW,215,4.0,5.0,72,0.00,,,-99.99,,2014-01-01 00:52:00,
2013-12-31 20:22:00,22.0,15.0,-100.00,South,190,4.0,6.0,76,0.00,,,-99.99,,2014-01-01 01:22:00,
2013-12-31 20:42:00,22.0,15.0,-100.00,SSW,210,5.0,7.0,75,0.00,,,-99.99,,2014-01-01 01:42:00,
2013-12-31 20:52:00,23.0,16.0,-100.00,South,190,5.0,7.0,75,0.00,,,-99.99,,2014-01-01 01:52:00,
2013-12-31 21:22:00,23.0,17.0,-100.00,South,190,6.0,9.0,76,0.00,,,-99.99,,2014-01-01 02:22:00,
2013-12-31 21:51:00,24.0,17.0,-100.00,SW,225,3.0,5.0,76,0.00,,,-99.99,,2014-01-01 02:51:00,
2013-12-31 21:52:00,24.0,17.0,-100.00,SSW,200,4.0,6.0,76,0.00,,,-99.99,,2014-01-01 02:52:00,
2013-12-31 22:22:00,24.0,17.0,-100.00,SW,225,3.0,5.0,76,0.00,,,-99.99,,2014-01-01 03:22:00,
2013-12-31 22:33:00,24.0,17.0,-100.00,SW,225,3.0,5.0,76,0.00,,,-99.99,,2014-01-01 03:33:00,
2013-12-31 22:43:00,24.0,17.0,-100.00,SW,225,3.0,5.0,76,0.00,,,-99.99,,2014-01-01 03:43:00,
2013-12-31 23:23:00,22.0,17.0,-100.00,SSW,205,1.0,2.0,79,0.00,,,-99.99,,2014-01-01 04:23:00,
2013-12-31 23:53:00,23.0,17.0,-100.00,South,185,1.0,2.0,79,0.00,,,-99.99,,2014-01-01 04:53:00,